NPV7799 LIRN-LIML

Flight info

Callsign NPV7799
Flight time N/A
Altitude 34000
Route ALAXI DCT INSOX DCT NIKMA DCT VERUN DCT LOMED DCT RUXOL/N0371F180 Q920 KALIK
Aircraft A320/M-SDE3FGHIRWY/LB1

Departure

Time 2026-05-05 13:48
Airport Naples International Airport (LIRN)

Arrival

Time N/A
Airport Milano Linate Airport (LIML)
Time Latitude Longitude Altitude Speed Heading
2026-05-05 13:29 40.88173 14.28667 288 ft 0 kts 329°
2026-05-05 13:40 40.88159 14.28678 288 ft 4 kts 329°
2026-05-05 13:40 40.88141 14.28692 288 ft 4 kts 326°
2026-05-05 13:40 40.88121 14.28704 293 ft 2 kts
2026-05-05 13:40 40.88098 14.28694 294 ft 4 kts 44°
2026-05-05 13:41 40.88081 14.28667 291 ft 4 kts 54°
2026-05-05 13:41 40.88077 14.28659 295 ft 3 kts 52°
2026-05-05 13:43 40.88084 14.28670 291 ft 4 kts 52°
2026-05-05 13:43 40.88112 14.28720 291 ft 9 kts 52°
2026-05-05 13:43 40.88162 14.28807 284 ft 14 kts 53°
2026-05-05 13:44 40.88234 14.28934 279 ft 20 kts 52°
2026-05-05 13:44 40.88327 14.29095 273 ft 25 kts 52°
2026-05-05 13:44 40.88442 14.29294 265 ft 30 kts 52°
2026-05-05 13:44 40.88581 14.29535 255 ft 35 kts 53°
2026-05-05 13:45 40.88712 14.29765 246 ft 35 kts 53°
2026-05-05 13:45 40.88868 14.30040 238 ft 40 kts 52°
2026-05-05 13:45 40.88998 14.30251 226 ft 20 kts 38°
2026-05-05 13:45 40.89045 14.30254 226 ft 0 kts 330°
2026-05-05 13:46 40.89054 14.30248 225 ft 3 kts 330°
2026-05-05 13:46 40.89081 14.30227 224 ft 6 kts 330°
2026-05-05 13:46 40.89123 14.30189 224 ft 6 kts 297°
2026-05-05 13:46 40.89114 14.30160 226 ft 2 kts 248°
2026-05-05 13:47 40.89058 14.30040 232 ft 45 kts 238°
2026-05-05 13:47 40.88775 14.29441 254 ft 106 kts 238°
2026-05-05 13:47 40.88288 14.28444 301 ft 150 kts 235°
2026-05-05 13:47 40.87713 14.27277 757 ft 155 kts 232°
2026-05-05 13:48 40.86949 14.26152 1050 ft 167 kts 225°
2026-05-05 13:48 40.86239 14.25239 1147 ft 157 kts 224°
2026-05-05 13:48 40.85377 14.24193 1335 ft 177 kts 216°
2026-05-05 13:48 40.84185 14.23804 1759 ft 189 kts 170°
2026-05-05 13:49 40.82910 14.24278 2363 ft 192 kts 164°
2026-05-05 13:49 40.81642 14.24763 2986 ft 192 kts 164°
2026-05-05 13:49 40.80364 14.25239 3587 ft 192 kts 165°
2026-05-05 13:49 40.79062 14.25717 4181 ft 194 kts 166°
2026-05-05 13:50 40.77755 14.26192 4757 ft 196 kts 167°
2026-05-05 13:50 40.76428 14.26671 5327 ft 198 kts 167°
2026-05-05 13:50 40.75095 14.27153 5917 ft 199 kts 167°
2026-05-05 13:50 40.73748 14.27640 6522 ft 200 kts 168°
2026-05-05 13:51 40.72455 14.28270 7054 ft 205 kts 149°
2026-05-05 13:51 40.71549 14.29757 7540 ft 219 kts 113°
2026-05-05 13:51 40.71465 14.31880 7764 ft 245 kts 81°
2026-05-05 13:51 40.71796 14.34139 8426 ft 252 kts 79°
2026-05-05 13:52 40.72155 14.36395 9172 ft 256 kts 79°
2026-05-05 13:52 40.72530 14.38709 9898 ft 260 kts 76°
2026-05-05 13:52 40.73336 14.40845 10527 ft 264 kts 45°
2026-05-05 13:52 40.74838 14.42200 11036 ft 271 kts 14°
2026-05-05 13:53 40.76739 14.42381 11298 ft 284 kts 346°
2026-05-05 13:53 40.78751 14.41880 11535 ft 306 kts 345°
2026-05-05 13:53 40.80909 14.41314 11734 ft 329 kts 345°
2026-05-05 13:53 40.83228 14.40709 11983 ft 349 kts 346°
2026-05-05 13:54 40.85633 14.40095 12555 ft 356 kts 346°
2026-05-05 13:54 40.88038 14.39495 13224 ft 360 kts 346°
2026-05-05 13:54 40.90516 14.38879 13878 ft 363 kts 345°
2026-05-05 13:54 40.92895 14.37833 14456 ft 361 kts 330°
2026-05-05 13:55 40.94997 14.36035 15081 ft 359 kts 317°
2026-05-05 13:55 40.96905 14.33895 15721 ft 360 kts 316°
2026-05-05 13:55 40.98822 14.31745 16353 ft 362 kts 316°
2026-05-05 13:55 41.00752 14.29587 16999 ft 365 kts 317°
2026-05-05 13:56 41.01407 14.28854 17230 ft 365 kts 317°